Regional Weather Roundup
Issued by NWS Newport/Morehead, NC

Current Version | Previous Version | Text Only | Print | Product List | Glossary On
Versions: 1 2 3 4 5 6 7 8 9 10 11 12 13 14 15 16 17 18 19 20 21 22 23 24 25 26 27 28 29 30 31 32 33 34 35 36 37 38 39 40 41 42 43 44 45 46 47 48 49 50
000
ASUS42 KMHX 180412
RWRMHX
WEATHER ROUNDUP FOR EASTERN NORTH CAROLINA
NATIONAL WEATHER SERVICE NEWPORT/MOREHEAD CITY NC
1200 AM EDT SAT APR 18 2015

NOTE: "FAIR" INDICATES FEW OR NO CLOUDS BELOW 12,000 FEET
WITH NO SIGNIFICANT WEATHER AND/OR OBSTRUCTIONS TO VISIBILITY

NCZ015>017-031-032-045>047-102-103-180500-
NORTH COAST

CITY           SKY/WX    TMP DP  RH WIND       PRES   REMARKS
EDENTON        MOCLDY    65  62  90 CALM      30.01S
ELIZABETH CITY MOCLDY    64  61  90 S5        30.00F
KITTY HAWK     MOCLDY    65  63  93 CALM      30.00S
MANTEO         MOCLDY    64  63  96 S3        30.01S

$$

NCZ045>047-081-094-103-104-180500-
CENTRAL COAST

CITY           SKY/WX    TMP DP  RH WIND       PRES   REMARKS
FRISCO         CLOUDY    61  59  93 CALM      30.01S
SWANQUARTER      N/A     66 N/A N/A S3        29.97S

$$

NCZ095-097-098-100-101-180500-
SOUTHERN COAST

CITY           SKY/WX    TMP DP  RH WIND       PRES   REMARKS
BEAUFORT       MOCLDY    65  64  97 CALM      30.01S
CEDAR ISLAND     N/A     66 N/A N/A SE1       30.03F
JACKSONVILLE   CLOUDY    66  63  90 CALM      30.00F
PINEY ISLAND   MOCLDY   N/A N/A N/A CALM      30.00F
WILMINGTON     LGT RAIN  67  65  93 CALM      30.00F


$$

NCZ011>013-027>030-043-044-078>080-089-090>093-098-180500-
COASTAL PLAIN

CITY           SKY/WX    TMP DP  RH WIND       PRES   REMARKS
AHOSKIE        CLOUDY    62  61  97 CALM      30.01S
CLINTON        CLOUDY    67  67 100 CALM      30.01F
ELIZABETHTOWN  CLOUDY    67  67  99 CALM      30.01S
GOLDSBORO      CLOUDY    67  65  91 CALM      29.98F
GREENVILLE     CLOUDY    68  64  88 S5        30.02S
HAVELOCK       CLOUDY    63  61  93 CALM      30.02S
KENANSVILLE    CLOUDY    65  64  94 CALM      30.01F
KINSTON        CLOUDY    66  64  91 CALM      30.01F
NEW BERN       CLOUDY    66  63  90 CALM      30.02S
RICHLANDS      CLOUDY    64  61  88 CALM      30.01F
ROCKY MOUNT    CLOUDY    66  64  93 CALM      30.00F
WASHINGTON     CLOUDY    67  64  88 S3        30.01S
WHITEVILLE     CLOUDY    66  64  95 CALM      30.01S

$$

AMZ130-135-150-152-154-156-158-170-250-252-270-ANZ085-086-088-633-658-670-180500-
MARINE OBSERVATIONS

STATION/POSITION TIME  TEMP    WIND        PRES    WAVE   SWELL
                       AIR SEA DIR/SP/G            HT/PER HT/PER
                 (UTC) (F)     (DEG/KT/KT) (MB)    (FT/S) (FT/S)
CHESAPEAKE LIGHT 0400   58     190/ 18/ 18 1016.3
64 E VA BEACH    0350   59 55  200/  6/  8 1015.8    4/ 8   5/ 8
DUCK             0300   64 53  190/  7/  9 1015.2
2 E DUCK         0311      53                N/A     3/ 8   2/11
10 NE DUCK       NOT AVBL
OREGON INLET     0300   60 64  120/  2/  3 1016.2
HATTERAS CG      0300          110/  2/  4   N/A
DIAMOND BUOY     0350   72 74  190/  6/  8 1016.3    5/ 8   5/ 8
CAPE LOOKOUT     0400   67      CALM  /  1 1015.8
BEAUFORT LAB     0300          120/  2/  2   N/A
27 SE WRIGHTSVLE 0300   71 73  120/  6/  8   N/A
5 SE WRIGHTSVLE  0300   65 64   10/  4/  6 1016.3
225 S CAPE HAT   0350   72 72  180/  2/  4 1015.6    6/10   5/10
41 SE CHARLESTON 0350   71 74   10/  8/ 10 1014.9    4/ 8   3/ 8

$$


USA.gov is the U.S. government's official web portal to all federal, state and local government web resources and services.